Retour au catalogue

ARIANE 42P+ DEB

LostHEO
NORAD 28279·DEBRIS·🇫🇷 France

Lancé Oct 28, 1992 depuis Guiana Space Centre

Loading…

Prochains Passages (prochaines 24 heures)

TLE

PériméSource: Space-Track

Époque: Dec 3, 2023, 20:46 UTC

1 28279U 92072N   23337.86590150 -.00000291  00000-0 -14332-1 0  9998
2 28279   7.6758 249.5399 6463997 292.2789  13.6911  2.90303297211850

Suivez ARIANE 42P+ DEB en temps réel avec AllMySat

Download on the App Store